www.pogodaiklimat.ru

Погода и климат >> Архив погоды >> Антарктида >> Дэвис


ПОГОДА на Дэвисе

  • Прогноз погоды на Дэвисе
  • Монитор погоды на Дэвисе

АРХИВ ПОГОДЫ на Дэвисе

Время (UTC), дата Ветер
(напр.,м/с)
 
Видим.   Явления Облачность Т
(С)
Тd
(С)
f
(%)
Тe
(С)
Тes
(С)
Комфортность P
(гПа)
Po
(гПа)
Тmin
(С)
Tmax
(С)
R
(мм)
R24
(мм)
S
(см)
12 15.05 З 2 22 км 9/0 <50 м
[Ac lent Ci fib]
-26.5 -29.5 76 -34 -34 опасность
обморожения
996.4 994.0
18 15.05 В 2 30 км ясно -24.3 -28.5 68 -31 -31 опасность
обморожения
994.5 992.1
00 16.05 В 2 30 км ясно -21.6 -29.3 50 -28 -28 993.0 990.6
06 16.05 В 4 30 км ясно -20.7 -29.8 44 -29 -29 991.6 989.2
12 16.05 СВ 1 30 км 3/0
[Ci fib]
-22.7 -30.3 50 -26 -26 991.6 989.2
18 16.05 В 3 30 км 1/0
[Ci fib]
-23.9 -30.8 53 -32 -32 опасность
обморожения
991.5 989.1
00 17.05 В 4 30 км 3/0
[Ci fib]
-21.4 -28.9 51 -30 -30 992.3 989.9
06 17.05 В 4 30 км 6/0
[Ci fib]
-21.9 -28.1 57 -31 -31 опасность
обморожения
992.7 990.3
12 17.05 Ю 2 15 км слаб. снег 8/0
[Ci sp]
-18.9 -21.9 77 -23 -23 992.9 990.5
18 17.05 ЮЗ 3 15 км слаб. снег 9/0
[Ac lent]
-17.7 -21.4 73 -24 -24 992.2 989.8
00 18.05 В 2 8000 м слаб. снег 10/0
[As op]
-17.4 -20.0 80 -23 -23 991.2 988.9
06 18.05 В 1 12 км слаб. снег 10/0
[As op]
-16.3 -18.8 81 -19 -19 991.5 989.2
12 18.05 В 2 15 км {снег} 6/6 1500 м
[Sc]
-18.3 -21.8 74 -23 -23 992.7 990.4
18 18.05 В 6 12 км 10/0
[Cs]
-16.9 -23.4 57 -27 -27 994.5 992.2
00 19.05 В 2 15 км 10/0
[As trans]
-18.0 -23.7 61 -24 -24 996.0 993.6
06 19.05 В 4 18 км 10/0
[Cs]
-19.0 -26.6 51 -28 -28 996.7 994.3
12 19.05 В 3 15 км слаб. снег 10/10 1500 м
[Sc]
-19.4 -24.8 62 -26 -26 997.4 995.0
18 19.05 В 3 18 км {снег} 9/9 1500 м
[Sc]
-20.1 -26.1 59 -27 -27 997.5 995.1
00 20.05 СВ 4 18 км 9/9 1500 м
[Sc]
-19.5 -26.9 52 -28 -28 997.7 995.3
06 20.05 В 5 20 км 9/4 1500 м
[Sc Ci sp]
-22.0 -29.8 49 -33 -33 опасность
обморожения
997.7 995.3
12 20.05 В 5 20 км 8/3 1500 м
[Sc Ci sp]
-21.2 -29.1 49 -31 -31 опасность
обморожения
998.3 995.9
18 20.05 В 5 18 км 9/9 1500 м
[Sc]
-19.9 -29.0 44 -30 -30 999.5 997.1
00 21.05 В 7 18 км 9/9 1500 м
[Sc]
-22.2 -30.9 45 -34 -34 опасность
обморожения
1001.1 998.7
06 21.05 В 5 22 км 8/0
[Ac trans]
-22.2 -30.9 45 -32 -32 опасность
обморожения
1002.4 1000.0
12 21.05 В 2 25 км 3/0
[Ac trans]
-23.7 -30.8 52 -29 -29 1004.3 1001.9
18 21.05 Ю 1 30 км 3/0
[Ac trans]
-23.3 -31.3 48 -24 -24 1003.6 1001.2
00 22.05 ЮВ 1 30 км ясно -24.5 -30.8 56 -28 -28 1002.3 999.9
06 22.05 ЮВ 2 30 км 3/0
[Ac trans Ci fib]
-22.9 -28.4 61 -28 -28 1000.2 997.8

 

Местоположение метеостанции Дэвис (Антарктида): широта -69.37 долгота 76.37 высота над уровнем моря 18 м.

В архиве по умолчанию представлена погода на Дэвисе за последнюю неделю. Архивные данные за месяц целиком и за предыдущие месяцы, начиная с января 2011 года, Вы можете получить, выбрав интересующий диапазон дат из раскрывающегося списка и нажав кнопку "Ввод!".


*Определитесь, кто Вы:
робот инопланетянин человек

Внимание! Время в таблицах - всемирное. Для получения местного времени необходимо прибавить поправку, которая равна 0 ч.

Смотрите также архив погоды в соседних городах и на ближайших метеорологических станциях:

Погода на Прогрессе (Антарктида) (1 км)
Погода на Бхарати (Антарктида) (8 км)
Погода на Davis (Антарктида) (108 км)
Погода на Дружной-4 (Антарктида) (111 км)
Погода на Davis (Whoop Whoop) (Антарктида) (140 км)
Погода на Леднике Эймери (Антарктида) (299 км)
Погода на Моусоне (Антарктида) (583 км)
Погода в Мирном (Антарктида) (759 км)
Погода на Dome Plateau Eagle (Антарктида) (783 км)
Погода на Davis АМС (Антарктида) (1223 км)

Пояснения к столбцам:

Ветер - указаны скорость ветра в м/с - средняя за 10 мин, порывы в срок и между сроками (в фигурных скобках) и направление, откуда дует ветер: С - северный, СВ - северо-восточный, В - восточный, ЮВ - юго-восточный, Ю - южный, ЮЗ - юго-западный, З - западный, СЗ - северо-западный.
Видимость - горизонтальная дальность видимости в метрах или километрах. При видимости от 1 до 10 км при отсутствии осадков обычно наблюдается дымка, при ухудшении видимости до 1 км и менее - туман. В сухую погоду видимость может ухудшаться дымом, пылью или мглою.
Явления - указаны атмосферные явления, наблюдавшиеся в срок или в последний час перед сроком; фигурными скобками обозначены явления, наблюдавшиеся между сроками (за 1-3 часа до срока); квадратными скобками обозначены град или гололедные отложения с указанием их диаметра в мм.
Облачность - указаны через наклонную черту общая и нижняя облачность в баллах и высота нижней границы облаков в метрах; квадратными скобками обозначены формы облаков: Ci - перистые, Cs - перисто-слоистые, Cc - перисто-кучевые, Ac - высококучевые, As - высокослоистые, Sc - слоисто-кучевые, Ns - слоисто-дождевые, Cu - кучевые, Cb - кучево-дождевые. Подробнее классификацию облаков см. в Атласе облаков (PDF).
T - Температура воздуха - температура, измеренная на высоте 2 м над землей.
Td - Температура точки росы - температура, при понижении до которой содержащийся в воздухе водяной пар достигнет насыщения.
f - Относительная влажность воздуха - влажноcть воздуха, измеренная на высоте 2 м над землей.
Te - Эффективная температура - температура, которую ощущает одетый по сезону человек в тени. Характеристика душности погоды. При расчете учитывается влияние влажности воздуха и скорости ветра на теплоощущения человека.
Tes - Эффективная температура на солнце - температура, которую ощущает человек, с поправкой на солнечный нагрев. Характеристика знойности погоды. Зависит от высоты солнца над горизонтом, облачности и скорости ветра. Ночью, в пасмурную погоду, а также при ветре 12 м/с и более поправка равна нулю.
P - Атмосферное давление - приведенное к уровню моря атмосферное давление.
Po - Атмосферное давление - измеренное на уровне метеостанции атмосферное давление.
Tmin - Минимальная температура - минимум температуры воздуха на высоте 2 м над землей.
Tmax - Максимальная температура - максимум температуры воздуха на высоте 2 м над землей.
R - Количество осадков - Количество выпавших осадков за период времени, мм. При наведении курсора мыши на число - период времени, за который выпало указанное количество осадков.
R24 - Количество осадков - Количество выпавших осадков за 24 часа, мм.
S - Снежный покров - Высота снежного покрова, см. При наведении курсора мыши на число - состояние снежного покрова и степень покрытия местности в баллах.